Frankfort, MI

3:21 AM EST on February 25, 2017 (GMT -0500)
Frankfort

Weather History for KFKS - April, 2014

Change the Weather History Date:

Saturday, April 5, 2014

  Actual Average (KMBL) Record (KMBL)
Temperature  
Mean Temperature 32 °F -  
Max Temperature 39 °F 48 °F 69 °F (1988)
Min Temperature 26 °F 30 °F 15 °F (1982)
Degree Days  
Heating Degree Days 32    
Moisture  
Dew Point 23 °F    
Average Humidity 74    
Maximum Humidity 88    
Minimum Humidity 48    
Precipitation  
Precipitation 0.00 in - - ()
Sea Level Pressure  
Sea Level Pressure 30.06 in    
Wind  
Wind Speed 8 mph (WNW)    
Max Wind Speed 15 mph    
Max Gust Speed 30 mph    
Visibility 10 miles    
Events Snow    
Averages and records for this station are not official NWS values.
T = Trace of Precipitation, MM = Missing Value Source: NWS Daily Summary

Daily Weather History Graph

Daily Weather History Graph

Search for Another Location

Airport or City:

Trip Planner

Search our weather history database for the weather conditions in past years. The results will help you decide how hot, cold, wet, or windy it might be!

Date:

Astronomy

Apr. 05, 2014 Rise Set
Actual Time 7:18 AM EDT 8:17 PM EDT
Civil Twilight 6:48 AM EDT 8:47 PM EDT
Nautical Twilight 6:13 AM EDT 9:22 PM EDT
Astronomical Twilight 5:36 AM EDT 10:00 PM EDT
Moon 11:17 AM EDT (4/5) 1:35 AM EDT (4/5)
Length of Visible Light 13h 58m
Length of Day
12h 58m
Waxing Crescent, 34% of the Moon is Illuminated
Apr 5
Waxing Crescent
Apr 7
First Quarter
Apr 15
Full
Apr 22
Last Quarter
Apr 29
New

Hourly Weather History & Observations

Time (EDT) Temp. Windchill Dew Point Humidity Pressure Visibility Wind Dir Wind Speed Gust Speed Precip Events Conditions
12:12 AM 26.8 °F 17.7 °F 22.6 °F 84% 29.80 in 5.0 mi NNW 9.2 mph 26.5 mph N/A Snow Light Snow
12:32 AM 27.1 °F 16.4 °F 22.6 °F 83% 29.81 in 5.0 mi NNW 12.7 mph 29.9 mph N/A Snow Light Snow
12:53 AM 27.3 °F 16.1 °F 24.1 °F 88% 29.82 in 3.0 mi NW 13.8 mph 25.3 mph N/A Snow Light Snow
1:13 AM 27.5 °F 18.6 °F 23.9 °F 86% 29.82 in 5.0 mi NNW 9.2 mph 20.7 mph N/A Snow Light Snow
1:33 AM 27.5 °F 16.3 °F 23.4 °F 84% 29.84 in 10.0 mi NNW 13.8 mph 24.2 mph N/A   Overcast
1:53 AM 27.9 °F 19.1 °F 22.8 °F 81% 29.85 in 10.0 mi NNW 9.2 mph 19.6 mph N/A   Overcast
2:13 AM 27.7 °F 18.8 °F 23.4 °F 84% 29.86 in 10.0 mi NNW 9.2 mph 20.7 mph N/A   Overcast
2:33 AM 27.9 °F 16.8 °F 23.0 °F 82% 29.87 in 10.0 mi NW 13.8 mph 24.2 mph N/A   Overcast
2:53 AM 27.5 °F 16.3 °F 22.6 °F 82% 29.89 in 10.0 mi NNW 13.8 mph 25.3 mph N/A   Overcast
3:13 AM 27.5 °F 15.9 °F 21.9 °F 80% 29.90 in 10.0 mi NNW 15.0 mph 20.7 mph N/A   Overcast
3:34 AM 27.9 °F 16.3 °F 22.6 °F 81% 29.91 in 10.0 mi NNW 15.0 mph 19.6 mph N/A   Overcast
3:54 AM 27.9 °F 19.1 °F 23.0 °F 82% 29.92 in 10.0 mi NNW 9.2 mph - N/A   Overcast
4:34 AM 28.2 °F 19.5 °F 23.9 °F 84% 29.94 in 10.0 mi NNW 9.2 mph - N/A   Overcast
4:54 AM 27.9 °F 18.4 °F 23.4 °F 83% 29.95 in 10.0 mi North 10.4 mph - N/A   Overcast
5:14 AM 27.9 °F 21.5 °F 23.0 °F 82% 29.96 in 10.0 mi NNW 5.8 mph - N/A   Overcast
5:34 AM 27.9 °F 24.0 °F 23.0 °F 82% 29.97 in 10.0 mi NNW 3.5 mph - N/A   Overcast
5:54 AM 28.2 °F 21.0 °F 23.2 °F 81% 29.98 in 10.0 mi NW 6.9 mph 17.3 mph N/A   Overcast
6:14 AM 28.2 °F 19.5 °F 22.8 °F 80% 29.98 in 10.0 mi NNW 9.2 mph - N/A   Overcast
6:34 AM 28.4 °F 21.2 °F 23.4 °F 81% 29.99 in 10.0 mi NNW 6.9 mph - N/A   Overcast
6:55 AM 28.2 °F 21.0 °F 23.4 °F 82% 30.01 in 10.0 mi NNW 6.9 mph - N/A   Overcast
7:15 AM 27.5 °F 21.1 °F 23.9 °F 86% 30.02 in 10.0 mi North 5.8 mph - N/A   Overcast
7:35 AM 27.5 °F 23.6 °F 23.7 °F 86% 30.04 in 10.0 mi NW 3.5 mph - N/A   Overcast
7:55 AM 27.5 °F 20.2 °F 23.0 °F 83% 30.05 in 10.0 mi NW 6.9 mph - N/A   Overcast
8:15 AM 27.5 °F 19.3 °F 22.6 °F 82% 30.06 in 10.0 mi WNW 8.1 mph - N/A   Overcast
8:35 AM 27.5 °F 20.2 °F 22.1 °F 80% 30.08 in 10.0 mi NW 6.9 mph - N/A   Overcast
8:55 AM 27.5 °F 22.2 °F 21.7 °F 79% 30.08 in 10.0 mi NNW 4.6 mph - N/A   Overcast
9:15 AM 27.5 °F 19.3 °F 22.1 °F 80% 30.09 in 10.0 mi NW 8.1 mph - N/A   Overcast
9:35 AM 27.3 °F 19.9 °F 21.6 °F 79% 30.09 in 10.0 mi NNW 6.9 mph - N/A   Overcast
9:56 AM 27.5 °F 19.3 °F 22.1 °F 80% 30.10 in 10.0 mi NW 8.1 mph - N/A   Overcast
10:16 AM 27.7 °F 20.4 °F 22.1 °F 80% 30.11 in 10.0 mi WNW 6.9 mph - N/A   Overcast
10:36 AM 27.9 °F 20.6 °F 22.1 °F 79% 30.12 in 10.0 mi NW 6.9 mph - N/A   Overcast
10:56 AM 28.4 °F 19.7 °F 22.8 °F 80% 30.13 in 10.0 mi NW 9.2 mph - N/A   Overcast
11:16 AM 28.6 °F 21.5 °F 22.6 °F 78% 30.13 in 10.0 mi WNW 6.9 mph - N/A   Overcast
11:36 AM 29.3 °F 20.8 °F 22.8 °F 77% 30.14 in 10.0 mi WNW 9.2 mph - N/A   Overcast
11:56 AM 29.5 °F 23.4 °F 23.0 °F 77% 30.14 in 10.0 mi West 5.8 mph - N/A   Overcast
12:11 PM 29.8 °F 23.9 °F 23.0 °F 76% 30.14 in 10.0 mi West 5.8 mph - N/A   Mostly Cloudy
12:31 PM 30.2 °F 22.6 °F 23.7 °F 77% 30.15 in 10.0 mi West 8.1 mph - N/A   Scattered Clouds
12:52 PM 30.4 °F 23.6 °F 23.7 °F 76% 30.15 in 10.0 mi WNW 6.9 mph - N/A   Clear
1:12 PM 30.7 °F 23.3 °F 24.3 °F 77% 30.15 in 10.0 mi WNW 8.1 mph - N/A   Clear
1:32 PM 30.9 °F 26.2 °F 23.5 °F 74% 30.15 in 10.0 mi WSW 4.6 mph - N/A   Clear
1:52 PM 31.1 °F 25.4 °F 23.2 °F 72% 30.15 in 10.0 mi SW 5.8 mph - N/A   Clear
2:12 PM 32.2 °F 26.7 °F 23.7 °F 71% 30.15 in 10.0 mi WSW 5.8 mph - N/A   Clear
2:32 PM 32.5 °F 27.1 °F 21.9 °F 65% 30.15 in 10.0 mi West 5.8 mph - N/A   Clear
2:52 PM 33.3 °F 28.9 °F 22.5 °F 65% 30.15 in 10.0 mi WSW 4.6 mph - N/A   Clear
3:12 PM 32.5 °F 25.5 °F 22.5 °F 66% 30.15 in 10.0 mi WSW 8.1 mph - N/A   Clear
3:32 PM 33.8 °F 27.7 °F 24.4 °F 69% 30.15 in 10.0 mi West 6.9 mph - N/A   Clear
3:52 PM 33.3 °F 26.4 °F 23.7 °F 68% 30.15 in 10.0 mi WSW 8.1 mph - N/A   Clear
4:13 PM 34.0 °F 28.0 °F 23.4 °F 65% 30.14 in 10.0 mi SW 6.9 mph - N/A   Clear
4:33 PM 35.8 °F 30.9 °F 19.4 °F 51% 30.13 in 10.0 mi South 5.8 mph - N/A   Clear
4:53 PM 36.7 °F 32.9 °F 19.6 °F 50% 30.13 in 10.0 mi SW 4.6 mph - N/A   Clear
5:13 PM 37.4 °F 32.1 °F 19.9 °F 49% 30.12 in 10.0 mi South 6.9 mph - N/A   Clear
5:33 PM 38.5 °F 35.0 °F 20.3 °F 48% 30.12 in 10.0 mi SSW 4.6 mph - N/A   Clear
5:53 PM 39.4 °F 35.2 °F 22.1 °F 50% 30.12 in 10.0 mi West 5.8 mph - N/A   Clear
6:13 PM 37.8 °F 34.2 °F 23.9 °F 57% 30.12 in 10.0 mi WSW 4.6 mph - N/A   Clear
6:33 PM 39.2 °F 34.2 °F 23.7 °F 54% 30.12 in 10.0 mi SSW 6.9 mph - N/A   Clear
6:53 PM 39.6 °F 36.3 °F 23.9 °F 54% 30.12 in 10.0 mi SW 4.6 mph - N/A   Clear
7:14 PM 39.0 °F 35.7 °F 23.7 °F 54% 30.11 in 10.0 mi SW 4.6 mph - N/A   Clear
7:34 PM 38.1 °F 34.6 °F 23.9 °F 57% 30.11 in 10.0 mi SW 4.6 mph - N/A   Clear
7:54 PM 34.7 °F 30.6 °F 26.1 °F 71% 30.11 in 10.0 mi WSW 4.6 mph - N/A   Clear
8:14 PM 33.6 °F - 26.8 °F 76% 30.11 in 10.0 mi Calm Calm - N/A   Clear
8:34 PM 32.9 °F - 27.5 °F 81% 30.11 in 10.0 mi Calm Calm - N/A   Clear
8:54 PM 32.9 °F - 27.3 °F 80% 30.11 in 10.0 mi Calm Calm - N/A   Clear
9:14 PM 33.1 °F - 27.3 °F 79% 30.12 in 10.0 mi Calm Calm - N/A   Clear
9:34 PM 32.9 °F - 27.3 °F 80% 30.12 in 10.0 mi Calm Calm - N/A   Clear
9:54 PM 33.1 °F - 27.3 °F 79% 30.12 in 10.0 mi Calm Calm - N/A   Clear
10:15 PM 33.6 °F 28.4 °F 26.4 °F 75% 30.12 in 10.0 mi SSW 5.8 mph - N/A   Clear
10:35 PM 33.3 °F 30.2 °F 26.2 °F 75% 30.12 in 10.0 mi South 3.5 mph - N/A   Clear
10:55 PM 33.1 °F - 26.2 °F 76% 30.12 in 10.0 mi Calm Calm - N/A   Clear
11:15 PM 33.4 °F - 25.7 °F 73% 30.12 in 10.0 mi Calm Calm - N/A   Clear
11:35 PM 34.3 °F 30.2 °F 24.6 °F 68% 30.12 in 10.0 mi South 4.6 mph - N/A   Clear
11:55 PM 34.9 °F 32.0 °F 23.9 °F 64% 30.12 in 10.0 mi SSW 3.5 mph - N/A   Clear